TimeEDT,TemperatureF,Dew PointF,Humidity,Sea Level PressureIn,VisibilityMPH,Wind Direction,Wind SpeedMPH,Gust SpeedMPH,PrecipitationIn,Events,Conditions,WindDirDegrees,DateUTC
12:15 AM,56.8,52.5,85,29.73,10.0,Calm,Calm,-,N/A,,Clear,0,2013-06-14 04:15:00
12:35 AM,56.8,53.2,88,29.73,10.0,SSE,3.5,-,N/A,,Clear,150,2013-06-14 04:35:00
12:55 AM,56.7,53.1,88,29.73,10.0,Calm,Calm,-,N/A,,Clear,0,2013-06-14 04:55:00
1:15 AM,55.9,52.5,88,29.71,10.0,Calm,Calm,-,N/A,,Clear,0,2013-06-14 05:15:00
1:35 AM,54.7,51.4,89,29.71,10.0,Calm,Calm,-,N/A,,Clear,0,2013-06-14 05:35:00
1:55 AM,54.5,51.4,89,29.70,7.0,Calm,Calm,-,N/A,,Clear,0,2013-06-14 05:55:00
2:15 AM,54.5,51.4,89,29.70,10.0,Calm,Calm,-,N/A,,Clear,0,2013-06-14 06:15:00
2:35 AM,54.5,51.4,89,29.69,10.0,Calm,Calm,-,N/A,,Clear,0,2013-06-14 06:35:00
2:55 AM,54.5,51.6,90,29.69,10.0,Calm,Calm,-,N/A,,Clear,0,2013-06-14 06:55:00
3:15 AM,54.5,51.8,91,29.69,7.0,Calm,Calm,-,N/A,,Clear,0,2013-06-14 07:15:00
3:35 AM,54.5,51.8,91,29.69,7.0,Calm,Calm,-,N/A,,Clear,0,2013-06-14 07:35:00
3:55 AM,54.5,51.8,91,29.70,7.0,SE,3.5,-,N/A,,Clear,130,2013-06-14 07:55:00
4:15 AM,54.5,51.8,91,29.70,10.0,Calm,Calm,-,N/A,,Clear,0,2013-06-14 08:15:00
4:35 AM,54.5,51.8,91,29.71,5.0,Calm,Calm,-,N/A,,Clear,0,2013-06-14 08:35:00
4:55 AM,54.5,51.8,91,29.72,1.8,Calm,Calm,-,N/A,,Mist,0,2013-06-14 08:55:00
5:15 AM,54.5,52.0,91,29.72,1.5,Calm,Calm,-,N/A,,Mist,0,2013-06-14 09:15:00
5:35 AM,54.5,52.0,91,29.74,5.0,Calm,Calm,-,N/A,,Clear,0,2013-06-14 09:35:00
5:55 AM,54.1,51.6,91,29.73,7.0,Calm,Calm,-,N/A,,Clear,0,2013-06-14 09:55:00
6:15 AM,54.5,52.0,91,29.74,5.0,Calm,Calm,-,N/A,,Clear,0,2013-06-14 10:15:00
6:35 AM,54.5,52.0,91,29.74,7.0,Calm,Calm,-,N/A,,Clear,0,2013-06-14 10:35:00
6:55 AM,54.9,52.5,92,29.73,10.0,Calm,Calm,-,N/A,,Clear,0,2013-06-14 10:55:00
7:15 AM,56.8,54.5,92,29.74,10.0,Calm,Calm,-,N/A,,Clear,0,2013-06-14 11:15:00
7:35 AM,58.3,55.2,90,29.74,10.0,West,3.5,-,N/A,,Clear,270,2013-06-14 11:35:00
7:55 AM,59.4,55.4,87,29.74,10.0,North,3.5,-,N/A,,Scattered Clouds,350,2013-06-14 11:55:00
8:15 AM,59.9,54.5,82,29.75,10.0,NNW,4.6,-,N/A,,Clear,330,2013-06-14 12:15:00
8:35 AM,60.8,54.0,78,29.75,10.0,NW,3.5,-,N/A,,Clear,320,2013-06-14 12:35:00
8:55 AM,62.2,54.7,76,29.76,10.0,Calm,Calm,-,N/A,,Clear,0,2013-06-14 12:55:00
9:15 AM,62.4,54.3,75,29.76,10.0,North,5.8,-,N/A,,Scattered Clouds,350,2013-06-14 13:15:00
9:35 AM,64.4,55.4,73,29.77,10.0,North,8.1,-,N/A,,Clear,350,2013-06-14 13:35:00
9:55 AM,66.7,57.2,71,29.77,10.0,NNW,4.6,-,N/A,,Scattered Clouds,340,2013-06-14 13:55:00
10:15 AM,68.7,57.2,67,29.77,10.0,North,4.6,-,N/A,,Scattered Clouds,350,2013-06-14 14:15:00
10:35 AM,69.4,55.4,61,29.77,10.0,NNW,5.8,-,N/A,,Scattered Clouds,330,2013-06-14 14:35:00
10:55 AM,69.4,53.4,57,29.78,10.0,NW,5.8,-,N/A,,Clear,310,2013-06-14 14:55:00
11:15 AM,69.4,51.8,53,29.78,10.0,NNW,5.8,-,N/A,,Clear,340,2013-06-14 15:15:00
11:35 AM,71.6,52.9,52,29.78,10.0,WNW,3.5,-,N/A,,Clear,300,2013-06-14 15:35:00
11:55 AM,71.8,53.6,53,29.77,10.0,NNW,5.8,-,N/A,,Clear,330,2013-06-14 15:55:00
12:15 PM,73.6,54.5,51,29.77,10.0,NNW,5.8,-,N/A,,Clear,340,2013-06-14 16:15:00
12:35 PM,74.5,54.5,50,29.77,10.0,North,4.6,-,N/A,,Clear,350,2013-06-14 16:35:00
12:55 PM,74.5,52.9,47,29.77,10.0,North,8.1,-,N/A,,Clear,350,2013-06-14 16:55:00
1:15 PM,74.5,53.8,48,29.77,10.0,NNW,4.6,-,N/A,,Scattered Clouds,330,2013-06-14 17:15:00
1:35 PM,74.5,53.8,48,29.77,10.0,North,10.4,-,N/A,,Mostly Cloudy,360,2013-06-14 17:35:00
1:55 PM,74.5,52.0,45,29.77,10.0,NW,4.6,-,N/A,,Mostly Cloudy,320,2013-06-14 17:55:00
2:15 PM,77.0,52.7,43,29.77,10.0,North,9.2,-,N/A,,Scattered Clouds,350,2013-06-14 18:15:00
2:35 PM,76.8,52.0,42,29.77,10.0,North,9.2,-,N/A,,Clear,350,2013-06-14 18:35:00
2:55 PM,77.0,51.6,41,29.77,10.0,NW,5.8,-,N/A,,Clear,320,2013-06-14 18:55:00
3:15 PM,77.0,48.7,37,29.77,10.0,North,9.2,-,N/A,,Clear,350,2013-06-14 19:15:00
3:35 PM,77.0,49.5,38,29.76,10.0,NW,6.9,-,N/A,,Clear,320,2013-06-14 19:35:00
3:55 PM,77.2,50.4,39,29.76,10.0,NW,4.6,-,N/A,,Clear,310,2013-06-14 19:55:00
4:15 PM,78.6,51.8,39,29.76,10.0,WNW,4.6,-,N/A,,Clear,290,2013-06-14 20:15:00
4:35 PM,79.7,52.5,39,29.75,10.0,NW,3.5,-,N/A,,Scattered Clouds,310,2013-06-14 20:35:00
4:55 PM,75.0,53.4,47,29.75,10.0,WNW,4.6,-,N/A,,Scattered Clouds,290,2013-06-14 20:55:00
5:15 PM,74.5,56.3,53,29.76,10.0,West,5.8,-,N/A,,Scattered Clouds,280,2013-06-14 21:15:00
5:35 PM,72.5,55.0,54,29.76,10.0,WSW,3.5,-,N/A,,Scattered Clouds,240,2013-06-14 21:35:00
5:55 PM,73.6,55.8,54,29.76,10.0,Calm,Calm,-,N/A,,Mostly Cloudy,0,2013-06-14 21:55:00
6:15 PM,72.0,54.7,54,29.77,10.0,West,4.6,-,N/A,,Overcast,260,2013-06-14 22:15:00
6:35 PM,71.8,53.8,53,29.77,10.0,WSW,5.8,-,N/A,,Scattered Clouds,250,2013-06-14 22:35:00
6:55 PM,71.8,54.0,53,29.78,10.0,Calm,Calm,-,N/A,,Mostly Cloudy,0,2013-06-14 22:55:00
7:15 PM,70.2,52.2,53,29.78,10.0,Calm,Calm,-,N/A,,Mostly Cloudy,0,2013-06-14 23:15:00
7:35 PM,71.6,53.4,53,29.77,10.0,Calm,Calm,-,N/A,,Mostly Cloudy,0,2013-06-14 23:35:00
7:55 PM,71.4,52.9,52,29.78,10.0,Calm,Calm,-,N/A,,Mostly Cloudy,0,2013-06-14 23:55:00
8:15 PM,69.4,50.2,50,29.78,10.0,West,4.6,-,N/A,,Scattered Clouds,280,2013-06-15 00:15:00
8:35 PM,69.4,47.5,45,29.78,10.0,WNW,5.8,-,N/A,,Clear,290,2013-06-15 00:35:00
8:55 PM,69.4,45.5,42,29.79,10.0,NNW,4.6,-,N/A,,Clear,340,2013-06-15 00:55:00
9:15 PM,69.4,44.8,41,29.80,10.0,Calm,Calm,-,N/A,,Clear,0,2013-06-15 01:15:00
9:35 PM,69.4,46.8,44,29.82,10.0,NW,3.5,-,N/A,,Clear,320,2013-06-15 01:35:00
9:55 PM,68.4,47.1,47,29.82,10.0,Calm,Calm,-,N/A,,Clear,0,2013-06-15 01:55:00
10:15 PM,64.6,44.8,49,29.83,10.0,NW,3.5,-,N/A,,Clear,310,2013-06-15 02:15:00
10:35 PM,64.2,44.8,49,29.83,10.0,Calm,Calm,-,N/A,,Clear,0,2013-06-15 02:35:00
10:55 PM,62.4,43.3,50,29.84,10.0,Calm,Calm,-,N/A,,Clear,0,2013-06-15 02:55:00
11:15 PM,60.8,44.2,54,29.84,10.0,Calm,Calm,-,N/A,,Clear,0,2013-06-15 03:15:00
11:35 PM,59.5,43.7,56,29.85,10.0,West,3.5,-,N/A,,Clear,280,2013-06-15 03:35:00
11:55 PM,59.4,43.7,56,29.85,10.0,WNW,3.5,-,N/A,,Clear,290,2013-06-15 03:55:00